GPS BIIRM-5 (PRN 29)

Last updated on July 6, 2021, 3:39 p.m. UTC

1 32384U 07062A   21186.44884362 -.00000090  00000-0  00000-0 0  9992
2 32384  56.3678 345.8445 0017765 131.1228  49.6450  2.00571239 99256
UTC
Height (km)
Latitude
Longitude
Inclination
Orbital Period
UTC large
Height (km)
Speed (km/s)
/
Latitude / Longitude
Inclination (degrees)
Orbital Period (minutes)
Azimuth
Elevation
Range (km)
Doppler Factor
iOS Compass Heading
iOS Angle